Location: Ehingen
(48.2869°N, 9.7112°E)
Time: 20:47:44
(UTC+02:00)

ISS - Visible Passes

Search period start: 25 July 2017 00:00
Search period end: 04 August 2017 00:00
Orbit: 400 x 408 km, 51.6° (Epoch: 25 July)

Date Brightness Start Highest point End Pass type
(mag) Time Alt. Az. Time Alt. Az. Time Alt. Az.
25 Jul -3.1 00:07:26 10° W 00:10:38 54° NNW 00:13:50 10° ENE visible
25 Jul -2.9 01:44:15 10° WNW 01:47:26 47° N 01:50:37 10° E visible
25 Jul -4.0 03:20:46 10° WNW 03:24:01 64° SSW 03:27:14 10° SE visible
25 Jul -1.9 04:58:29 10° WSW 04:59:58 13° SW 05:01:26 10° SSW visible
25 Jul -2.9 21:39:08 10° SSW 21:41:57 28° SE 21:44:48 10° E visible
25 Jul -3.6 23:15:00 10° WSW 23:18:15 70° NNW 23:21:30 10° ENE visible
26 Jul -2.7 00:51:51 10° WNW 00:55:00 44° N 00:56:43 22° ENE visible
26 Jul -1.5 02:28:25 10° WNW 02:29:16 17° WNW 02:29:16 17° WNW visible
26 Jul -3.9 22:22:38 10° WSW 22:25:53 83° SSE 22:29:09 10° ENE visible
26 Jul -2.7 23:59:23 10° W 00:02:33 45° N 00:05:18 13° ENE visible
27 Jul -2.2 01:36:04 10° WNW 01:37:54 29° NW 01:37:54 29° NW visible
27 Jul -3.0 23:06:54 10° W 23:10:06 50° N 23:13:17 10° ENE visible
28 Jul -3.0 00:43:42 10° WNW 00:46:53 50° N 00:46:54 50° NNE visible
28 Jul -3.4 22:14:25 10° W 22:17:39 63° NNW 22:20:54 10° ENE visible
28 Jul -2.8 23:51:16 10° WNW 23:54:25 44° N 23:56:01 24° ENE visible
29 Jul -1.4 01:27:49 10° WNW 01:28:38 17° WNW 01:28:38 17° WNW visible
29 Jul -2.7 22:58:47 10° WNW 23:01:56 44° N 23:05:05 10° ENE visible
30 Jul -2.8 00:35:26 10° WNW 00:37:48 43° NW 00:37:48 43° NW visible
30 Jul -2.8 22:06:15 10° W 22:09:26 48° N 22:12:37 10° ENE visible
30 Jul -3.2 23:43:01 10° WNW 23:46:14 53° NNE 23:47:01 40° ENE visible
31 Jul -0.9 01:19:34 10° WNW 01:19:38 10° WNW 01:19:38 10° WNW visible
31 Jul -2.9 22:50:34 10° WNW 22:53:44 46° N 22:56:15 15° ENE visible
01 Aug -2.2 00:27:05 10° WNW 00:28:51 29° WNW 00:28:51 29° WNW visible
01 Aug -2.7 21:58:03 10° WNW 22:01:12 44° N 22:04:21 10° ENE visible
01 Aug -3.9 23:34:39 10° WNW 23:37:56 77° NNE 23:38:06 73° ENE visible
02 Aug -3.3 22:42:13 10° WNW 22:45:27 57° NNE 22:47:21 22° E visible
03 Aug -1.6 00:18:47 10° WNW 00:19:58 19° W 00:19:58 19° W visible
03 Aug -3.0 21:49:44 10° WNW 21:52:55 47° N 21:56:06 10° E visible
03 Aug -3.7 23:26:16 10° WNW 23:29:15 60° SW 23:29:15 60° SW visible
